Nantucket, Massachusetts, United States (02554)
Lat: 41.28N, Lon: 70.1W
Wx Zone: MAZ024
Local Info
Past Weather Observations for Today

NOTE: This archive is for the closest National Weather Service station to Nantucket. Information may differ from the station used for current weather conditions.

Click here for Long-term Archive

Time Weather Temperature Dewpoint Humidity Pressure Winds Precip Visibility
20:53
Clear
70°F / 21°C 66°F / 19°C 88% 29.62 in
(1003 mb)
SW 17.3 mph
(SW 28 kph)
- 8SM
19:53
Clear
70°F / 21°C 66°F / 19°C 88% 29.59 in
(1002 mb)
SW 17.3 mph
(SW 28 kph)
- 7SM
18:53
Clear
Fog And Mist
70°F / 21°C 66°F / 19°C 88% 29.59 in
(1002 mb)
SW 15 mph
(SW 24 kph)
- 6SM
17:53
Partly Cloudy
Fog And Mist
70°F / 21°C 66°F / 19°C 88% 29.56 in
(1001 mb)
SW 15 mph
(SW 24 kph)
- 5SM
17:09
Partly Cloudy
Fog And Mist
72°F / 22°C 68°F / 20°C 88% 29.56 in
(1001 mb)
SSE 13.8 mph
(SSE 22 kph)
- 4SM
16:53
Mostly Cloudy
Fog And Mist
72°F / 22°C 70°F / 21°C 94% 29.56 in
(1001 mb)
SSE 15 mph
(SSE 24 kph)
- 4SM
15:53
Overcast
Fog And Mist
72°F / 22°C 68°F / 20°C 88% 29.56 in
(1001 mb)
SSE 13.8 mph
(SSE 22 kph)
- 3SM
14:53
Overcast
Fog And Mist
72°F / 22°C 68°F / 20°C 88% 29.56 in
(1001 mb)
S 13.8 mph
(S 22 kph)
- 3SM
14:08
Overcast
Fog And Mist
73°F / 23°C 70°F / 21°C 89% 29.53 in
(1000 mb)
S 15 mph
(S 24 kph)
- 6SM
14:00
Overcast
73°F / 23°C 70°F / 21°C 89% 29.53 in
(1000 mb)
S 10.4 mph
(S 17 kph)
- 7SM
13:53
Overcast
73°F / 23°C 70°F / 21°C 89% 29.56 in
(1001 mb)
S 13.8 mph
(S 22 kph)
- 8SM
13:45
Overcast
73°F / 23°C 68°F / 20°C 83% 29.56 in
(1001 mb)
SSE 13.8 mph
(SSE 22 kph)
- 8SM
13:00
Overcast
72°F / 22°C 66°F / 19°C 83% 29.56 in
(1001 mb)
SSE 13.8 mph
(SSE 22 kph)
- 10SM
12:53
Mostly Cloudy
72°F / 22°C 66°F / 19°C 83% 29.56 in
(1001 mb)
SSE 15 mph
(SSE 24 kph)
- 10SM
11:53
Mostly Cloudy
72°F / 22°C 66°F / 19°C 83% 29.56 in
(1001 mb)
SSE 15 mph
(SSE 24 kph)
- 8SM
10:53
Partly Cloudy
73°F / 23°C 68°F / 20°C 83% 29.59 in
(1002 mb)
SSE 16.1 mph
(SSE 26 kph)
- 10SM
09:53
Clear
72°F / 22°C 66°F / 19°C 83% 29.59 in
(1002 mb)
S 19.6 mph
(S 32 kph)
0.04 in
(1.02 mm)
9SM
08:53
Overcast
Light Rain
70°F / 21°C 66°F / 19°C 88% 29.59 in
(1002 mb)
S 18.4 mph
(S 30 kph)
0.07 in
(1.78 mm)
5SM
08:38
Overcast
Light Rain
70°F / 21°C 68°F / 20°C 94% 29.62 in
(1003 mb)
S 19.6 mph
(S 32 kph)
0.06 in
(1.52 mm)
3SM
08:24
Overcast
Light Rain
70°F / 21°C 70°F / 21°C 100% 29.62 in
(1003 mb)
S 19.6 mph
(S 32 kph)
0.05 in
(1.27 mm)
2SM
07:53
Overcast
Light Rain
70°F / 21°C 66°F / 19°C 88% 29.65 in
(1004 mb)
S 17.3 mph
(S 28 kph)
0.01 in
(0.25 mm)
7SM
07:41
Overcast
Thunder Storms
70°F / 21°C 66°F / 19°C 88% 29.65 in
(1004 mb)
S 13.8 mph
(S 22 kph)
0.00 in
(0.00 mm)
7SM
07:04
Overcast
68°F / 20°C 66°F / 19°C 94% 29.65 in
(1004 mb)
S 12.7 mph
(S 20 kph)
- 9SM
06:53
Overcast
68°F / 20°C 66°F / 19°C 94% 29.65 in
(1004 mb)
S 12.7 mph
(S 20 kph)
0.00 in
(0.00 mm)
8SM
06:51
Overcast
68°F / 20°C 66°F / 19°C 94% 29.65 in
(1004 mb)
S 13.8 mph
(S 22 kph)
0.00 in
(0.00 mm)
8SM
06:17
Mostly Cloudy
Fog And Mist
68°F / 20°C 66°F / 19°C 94% 29.65 in
(1004 mb)
SSE 12.7 mph
(SSE 20 kph)
- 6SM
06:04
Mostly Cloudy
Fog And Mist
68°F / 20°C 66°F / 19°C 94% 29.65 in
(1004 mb)
SSE 11.5 mph
(SSE 19 kph)
- 5SM
05:57
Partly Cloudy
Fog And Mist
68°F / 20°C 66°F / 19°C 94% 29.65 in
(1004 mb)
SSE 11.5 mph
(SSE 19 kph)
- 5SM
05:53
Mostly Cloudy
Fog And Mist
66°F / 19°C 66°F / 19°C 100% 29.65 in
(1004 mb)
SSE 11.5 mph
(SSE 19 kph)
- 2SM
05:49
Mostly Cloudy
Fog And Mist
66°F / 19°C 66°F / 19°C 100% 29.65 in
(1004 mb)
SSE 11.5 mph
(SSE 19 kph)
- 2SM
05:46
Obscured
Fog And Mist
66°F / 19°C 66°F / 19°C 100% 29.65 in
(1004 mb)
SSE 10.4 mph
(SSE 17 kph)
- 3/4SM
05:37
Obscured
Fog
66°F / 19°C 66°F / 19°C 100% 29.65 in
(1004 mb)
SE 9.2 mph
(SE 15 kph)
- 1/4SM
05:18
Obscured
Fog
66°F / 19°C 66°F / 19°C 100% 29.68 in
(1005 mb)
SSE 10.4 mph
(SSE 17 kph)
- 1/4SM
05:02
Obscured
Fog
68°F / 20°C 66°F / 19°C 94% 29.65 in
(1004 mb)
SSE 8.1 mph
(SSE 13 kph)
- 1/4SM
04:53
Obscured
Fog
68°F / 20°C 66°F / 19°C 94% 29.65 in
(1004 mb)
SSE 9.2 mph
(SSE 15 kph)
0.01 in
(0.25 mm)
1/2SM
04:40
Obscured
Light Rain
68°F / 20°C 66°F / 19°C 94% 29.68 in
(1005 mb)
SSE 8.1 mph
(SSE 13 kph)
0.01 in
(0.25 mm)
1/2SM
03:53
Obscured
Fog
68°F / 20°C 66°F / 19°C 94% 29.68 in
(1005 mb)
SSE 8.1 mph
(SSE 13 kph)
- 1/4SM
03:50
Obscured
Fog
68°F / 20°C 66°F / 19°C 94% 29.68 in
(1005 mb)
SSE 6.9 mph
(SSE 11 kph)
- 1/4SM
03:25
Obscured
Fog
70°F / 21°C 68°F / 20°C 94% 29.68 in
(1005 mb)
S 10.4 mph
(S 17 kph)
- 1/2SM
03:23
Obscured
Fog
70°F / 21°C 68°F / 20°C 94% 29.68 in
(1005 mb)
S 10.4 mph
(S 17 kph)
- 1/4SM
03:12
Obscured
Fog
70°F / 21°C 68°F / 20°C 94% 29.68 in
(1005 mb)
S 9.2 mph
(S 15 kph)
- 1/2SM
03:06
Obscured
Fog
70°F / 21°C 68°F / 20°C 94% 29.68 in
(1005 mb)
S 9.2 mph
(S 15 kph)
- 1/4SM
02:53
Obscured
Fog
70°F / 21°C 68°F / 20°C 94% 29.68 in
(1005 mb)
S 9.2 mph
(S 15 kph)
- 1/2SM
02:50
Obscured
Fog
70°F / 21°C 68°F / 20°C 94% 29.68 in
(1005 mb)
SSE 10.4 mph
(SSE 17 kph)
- 1/2SM
02:40
Obscured
Fog
70°F / 21°C 68°F / 20°C 94% 29.68 in
(1005 mb)
S 10.4 mph
(S 17 kph)
- 1/2SM
01:53
Obscured
Fog
70°F / 21°C 68°F / 20°C 94% 29.68 in
(1005 mb)
S 8.1 mph
(S 13 kph)
- 1/4SM
01:42
Obscured
Fog
68°F / 20°C 68°F / 20°C 100% 29.71 in
(1006 mb)
S 6.9 mph
(S 11 kph)
- 1/2SM
00:53
Obscured
Fog
66°F / 19°C 66°F / 19°C 100% 29.71 in
(1006 mb)
SSE 3.5 mph
(SSE 6 kph)
- 1/4SM
00:43
Obscured
Fog
66°F / 19°C 66°F / 19°C 100% 29.71 in
(1006 mb)
SSE 3.5 mph
(SSE 6 kph)
- 1/4SM
00:04
Obscured
Fog
66°F / 19°C 64°F / 18°C 94% 29.71 in
(1006 mb)
S 3.5 mph
(S 6 kph)
- 1/4SM
00:00
Obscured
Fog
66°F / 19°C 66°F / 19°C 100% 29.71 in
(1006 mb)
S 4.6 mph
(S 7 kph)
- 1/2SM
Time Weather Temperature Dewpoint Humidity Pressure Winds Precip Visibility


Weather for websites

WeatherForYou.com, LLC is not responsible for any damages or problems caused by this service. Current weather conditions are obtained from the closest station including government and personal stations which may have varying degrees of accuracy. Weather forecasts are derived from the NOAA NDFD. Like all things, this site belongs to Jesus Christ... He just trusts me to maintain it. If you have any questions or comments email webmaster@weatherforyou.com

Copyright © 2014, WeatherForYou.com LLC. All rights reserved.